Location: DARK SKY Beskydy - Park tmavé oblohy, www.darkskybeskydy.cz
(49.4926°N, 18.5016°E)
Time: 17:50:29
(UTC+02:00)

PCSat - Pass Details

Date: 09 August 2024
Orbit: 781 x 793 km, 67.1° (Epoch: 08 September)

Event Time Altitude Azimuth Distance (km) Brightness Sun altitude
Rises 21:33:37 0° 294° (WNW) 3,292 14.4 -11.7°
Reaches altitude 10° 21:37:31 10° 322° (NW) 2,366 13.5 -12.2°
Maximum altitude 21:39:58 13° 349° (N) 2,161 12.6 -12.5°
Drops below altitude 10° 21:42:26 10° 17° (NNE) 2,369 12.4 -12.8°
Sets 21:46:22 0° 44° (NE) 3,300 12.8 -13.2°
